This is the latest recevied weather packets stored in our database for station/object KC3WWU. If no packets are shown the sender has not sent any weather packets the latest 10 day(s).
| Time | Temp. | Humidity | Pressure | Rain* | Wind** | Luminosity | Snow |
|---|---|---|---|---|---|---|---|
| 1777550482 | 6.67° C | 99% | 1007 hPa | 0 mm | - | 38 W/m² | - |
| 1777550178 | 6.67° C | 99% | 1006.9 hPa | 0 mm | - | 31 W/m² | - |
| 1777549875 | 6.11° C | 99% | 1007.1 hPa | 0 mm | - | 32 W/m² | - |
| 1777549571 | 6.11° C | 99% | 1007 hPa | 0 mm | - | 53 W/m² | - |
| 1777549267 | 6.11° C | 99% | 1007.2 hPa | 0 mm | - | 36 W/m² | - |
| 1777548963 | 6.11° C | 99% | 1007.2 hPa | 0 mm | - | 16 W/m² | - |
| 1777548660 | 6.11° C | 99% | 1007.3 hPa | 0 mm | - | 21 W/m² | - |
| 1777548357 | 6.11° C | 99% | 1007.1 hPa | 0 mm | - | 36 W/m² | - |
| 1777548055 | 6.11° C | 99% | 1007 hPa | 0 mm | - | 34 W/m² | - |
| 1777547750 | 6.11° C | 99% | 1007 hPa | 0 mm | - | 28 W/m² | - |
| 1777547446 | 6.11° C | 99% | 1007 hPa | 1.27 mm | - | 20 W/m² | - |
| 1777547144 | 6.11° C | 99% | 1007.3 hPa | 1.27 mm | - | 18 W/m² | - |
| 1777546841 | 6.11° C | 99% | 1006.9 hPa | 0 mm | - | 9 W/m² | - |
| 1777546538 | 6.11° C | 99% | 1007.2 hPa | 0 mm | - | 8 W/m² | - |
| 1777546235 | 6.11° C | 99% | 1007.1 hPa | 0 mm | - | 10 W/m² | - |
| 1777545932 | 6.11° C | 99% | 1007.3 hPa | 0 mm | - | 8 W/m² | - |
| 1777545628 | 6.11° C | 99% | 1007.3 hPa | 0 mm | - | 7 W/m² | - |
| 1777545325 | 6.11° C | 99% | 1007.3 hPa | 0 mm | - | 5 W/m² | - |
| 1777545023 | 6.11° C | 99% | 1007.2 hPa | 1.78 mm | - | 2 W/m² | - |
| 1777544719 | 6.11° C | 99% | 1007.4 hPa | 1.78 mm | - | 1 W/m² | - |
| 1777544414 | 6.11° C | 99% | 1007.5 hPa | 0 mm | - | 1 W/m² | - |
| 1777544111 | 6.11° C | 99% | 1007.4 hPa | 0 mm | - | 1 W/m² | - |
| 1777543809 | 6.11° C | 99% | 1007.3 hPa | 0 mm | - | 0 W/m² | - |
| 1777543504 | 6.11° C | 99% | 1007.5 hPa | 0 mm | - | 0 W/m² | - |
| 1777543201 | 6.11° C | 99% | 1007.2 hPa | 1.27 mm | - | 0 W/m² | - |
* Rain latest hour (hover to see other rain measurements)
** Current wind speed in m/s (hover to see current wind gust speed)